Regional Weather Roundup
Issued by NWS Midland/Odessa, TX

Home | Current Version | Previous Version | Text Only | Print | Product List | Glossary On
Versions: 1 2 3 4 5 6 7 8 9 10 11 12 13 14 15 16 17 18 19 20 21 22 23 24 25 26 27 28 29 30 31 32 33 34 35 36 37 38 39 40 41 42 43 44 45 46 47 48 49 50
000
ASUS44 KMAF 180010
RWRMAF
MIDLAND AREA WEATHER ROUNDUP
NATIONAL WEATHER SERVICE MIDLAND TX
600 PM CST WED DEC 17 2014

...IN SOUTHWEST TEXAS AND SOUTHEAST NEW MEXICO...

CITY           SKY/WX    TMP DP  RH WIND       PRES   REMARKS
ALPINE         CLEAR     57  26  30 W8        30.11R
ANDREWS        FAIR      60  28  29 W13G18    29.97R
ARTESIA        CLEAR     55  30  38 W20G28    29.98R
BIG SPRING     CLEAR     59  44  58 S8        29.98S
CARLSBAD       CLEAR     59  29  31 W21G26    29.96R
DRYDEN           N/A     53  47  79 NE6       30.03R
FORT STOCKTON  CLEAR     58  35  42 E6        30.01R
GUAD PASS      NOT AVBL
HOBBS          CLEAR     55  28  35 SW13      29.98R
MARFA          CLEAR     54  25  32 W8        30.08S
MIDLAND AIRPK  CLEAR     63  30  28 W10       29.98R
MIDLAND INTL   CLEAR     62  29  28 W17       29.97R
ODESSA         CLEAR     62  27  26 W16       29.98R
PECOS          CLEAR     61  28  29 W9        30.00R
PRESIDIO       FAIR      66  34  30 N9        30.00R
SEMINOLE       CLEAR     57  30  35 W9        29.97R
SNYDER         CLEAR     49  44  83 E7        30.00R
WINK           CLEAR     62  26  25 W13       29.98R
$$
...OTHER STATIONS IN TEXAS...

CITY           SKY/WX    TMP DP  RH WIND       PRES   REMARKS
ABILENE        CLOUDY    51  41  68 SE6       30.04R
AMARILLO       CLOUDY    37  35  92 SE20      29.96S WCI  27
AUSTIN         CLOUDY    52  50  93 NE3       30.06S
BROWNSVILLE    CLOUDY    72  67  84 SE12      30.00R
CORPUS CHRISTI MOCLDY    70  64  81 SE13      30.01R
DALLAS FTW     LGT RAIN  42  41  96 NE8       30.13R FOG     WCI  37
DEL RIO        CLOUDY    54  49  83 E6        30.03R
EL PASO        PTCLDY    58  31  35 W22G29    30.03R
HOUSTON INT    CLOUDY    61  54  77 SE13      30.09F
LUBBOCK        MOCLDY    47  39  74 E15       29.94S
SAN ANGELO     CLOUDY    56  49  77 S12       30.01R
SAN ANTONIO    CLOUDY    54  51  90 N6        30.04R
WACO           LGT RAIN  47  43  86 SE6       30.09S
WICHITA FALLS  NOT AVBL
$$
...OTHER LOCATIONS IN NEW MEXICO...

CITY           SKY/WX    TMP DP  RH WIND       PRES   REMARKS
ALAMAGORDO     PTCLDY    50  32  50 SE9       30.03R
ALBUQUERQUE    LGT RAIN  40  38  93 S12       30.00R WCI  33
CANNON AFB     CLEAR     51  29  44 W9        29.93R
CLOVIS         CLEAR     46  28  49 SW9       29.93R
HOLLOMAN AFB   PTCLDY    53  30  41 SW20      30.01R
ROSWELL        PTCLDY    56  29  35 SW9       29.95R
RUIDOSO        MOCLDY    37  30  75 SW18G26   30.03R WCI  27
SANTA FE       CLOUDY    33  32  96 W6        29.98R WCI  28
TRUTH OR CONSE CLEAR     50  24  36 W13       30.01R
TUCUMCARI      PTCLDY    50  31  48 SW8       29.88S
$$


USA.gov is the U.S. government's official web portal to all federal, state and local government web resources and services.